Time,TemperatureF,DewpointF,PressureIn,WindDirection,WindDirectionDegrees,WindSpeedMPH,WindSpeedGustMPH,Humidity,HourlyPrecipIn,Conditions,Clouds,dailyrainin,SoftwareType,DateUTC
2013-03-27 02:19:00,33.5,30.6,30.07,WNW,294,3.0,-999.0,89,0.00,,,0.00,Wunderground v.1.15,2013-03-27 06:19:00,
2013-03-27 02:21:00,33.5,30.6,30.07,WNW,292,3.0,-999.0,89,0.00,,,0.00,Wunderground v.1.15,2013-03-27 06:21:00,
2013-03-27 02:27:00,33.5,30.6,30.07,WNW,292,2.0,-999.0,89,0.00,,,0.00,Wunderground v.1.15,2013-03-27 06:27:00,
2013-03-27 02:29:00,33.5,30.6,30.07,West,272,3.0,-999.0,89,0.00,,,0.00,Wunderground v.1.15,2013-03-27 06:29:00,
2013-03-27 02:35:00,33.5,30.6,30.07,West,281,3.0,-999.0,89,0.00,,,0.00,Wunderground v.1.15,2013-03-27 06:35:00,
2013-03-27 02:40:00,33.5,30.6,30.07,WNW,287,3.0,-999.0,89,0.00,,,0.00,Wunderground v.1.15,2013-03-27 06:40:00,
2013-03-27 02:46:00,33.5,30.6,30.07,WNW,297,3.0,-999.0,89,0.00,,,0.00,Wunderground v.1.15,2013-03-27 06:46:00,
2013-03-27 02:52:00,33.5,30.6,30.07,WNW,295,3.0,-999.0,89,0.00,,,0.00,Wunderground v.1.15,2013-03-27 06:52:00,
2013-03-27 02:57:00,33.5,30.6,30.07,WNW,292,3.0,-999.0,89,0.00,,,0.00,Wunderground v.1.15,2013-03-27 06:57:00,
2013-03-27 03:03:00,33.6,30.7,30.07,WNW,291,3.0,-999.0,89,0.00,,,0.00,Wunderground v.1.15,2013-03-27 07:03:00,
2013-03-27 03:09:00,33.6,30.7,30.07,WNW,292,3.0,-999.0,89,0.00,,,0.00,Wunderground v.1.15,2013-03-27 07:09:00,
2013-03-27 03:15:00,33.6,30.7,30.06,WNW,296,4.0,-999.0,89,0.00,,,0.00,Wunderground v.1.15,2013-03-27 07:15:00,
2013-03-27 03:20:00,33.6,30.4,30.06,WNW,292,4.0,-999.0,88,0.00,,,0.00,Wunderground v.1.15,2013-03-27 07:20:00,
2013-03-27 03:25:00,33.7,30.5,30.06,WNW,294,3.0,-999.0,88,0.00,,,0.00,Wunderground v.1.15,2013-03-27 07:25:00,
2013-03-27 03:31:00,33.7,30.5,30.06,WNW,295,2.0,-999.0,88,0.00,,,0.00,Wunderground v.1.15,2013-03-27 07:31:00,
2013-03-27 03:36:00,33.7,30.5,30.06,WNW,295,2.0,-999.0,88,0.00,,,0.00,Wunderground v.1.15,2013-03-27 07:36:00,
2013-03-27 03:42:00,33.8,30.6,30.06,WSW,256,2.0,-999.0,88,0.00,,,0.00,Wunderground v.1.15,2013-03-27 07:42:00,
2013-03-27 03:48:00,33.8,30.3,30.06,WNW,302,2.0,-999.0,87,0.00,,,0.00,Wunderground v.1.15,2013-03-27 07:48:00,
2013-03-27 03:54:00,33.9,30.4,30.06,WNW,295,3.0,-999.0,87,0.00,,,0.00,Wunderground v.1.15,2013-03-27 07:54:00,
2013-03-27 04:00:00,33.9,30.4,30.06,NW,304,4.0,-999.0,87,0.00,,,0.00,Wunderground v.1.15,2013-03-27 08:00:00,
2013-03-27 04:05:00,33.9,30.4,30.06,WNW,299,4.0,-999.0,87,0.00,,,0.00,Wunderground v.1.15,2013-03-27 08:05:00,
2013-03-27 04:11:00,33.9,30.4,30.06,WNW,292,3.0,-999.0,87,0.00,,,0.00,Wunderground v.1.15,2013-03-27 08:11:00,
2013-03-27 04:17:00,34.0,30.3,30.06,WNW,292,3.0,-999.0,86,0.00,,,0.00,Wunderground v.1.15,2013-03-27 08:17:00,
2013-03-27 04:22:00,33.9,30.2,30.06,WNW,292,3.0,-999.0,86,0.00,,,0.00,Wunderground v.1.15,2013-03-27 08:22:00,
2013-03-27 04:28:00,33.9,30.2,30.06,WNW,290,2.0,-999.0,86,0.00,,,0.00,Wunderground v.1.15,2013-03-27 08:28:00,
2013-03-27 04:34:00,34.0,30.3,30.06,WNW,286,2.0,-999.0,86,0.00,,,0.00,Wunderground v.1.15,2013-03-27 08:34:00,
2013-03-27 04:40:00,34.0,30.3,30.06,WNW,293,2.0,-999.0,86,0.00,,,0.00,Wunderground v.1.15,2013-03-27 08:40:00,
2013-03-27 04:45:00,34.0,30.3,30.06,WNW,298,2.0,-999.0,86,0.00,,,0.00,Wunderground v.1.15,2013-03-27 08:45:00,
2013-03-27 04:51:00,34.0,30.3,30.06,West,271,3.0,-999.0,86,0.00,,,0.00,Wunderground v.1.15,2013-03-27 08:51:00,
2013-03-27 04:57:00,34.0,30.0,30.06,WNW,282,3.0,-999.0,85,0.00,,,0.00,Wunderground v.1.15,2013-03-27 08:57:00,
2013-03-27 05:03:00,34.0,30.0,30.07,WNW,285,3.0,-999.0,85,0.00,,,0.00,Wunderground v.1.15,2013-03-27 09:03:00,
2013-03-27 05:09:00,34.0,30.3,30.07,WNW,285,2.0,-999.0,86,0.00,,,0.00,Wunderground v.1.15,2013-03-27 09:09:00,
2013-03-27 05:14:00,33.9,30.2,30.07,WNW,300,1.0,-999.0,86,0.00,,,0.00,Wunderground v.1.15,2013-03-27 09:14:00,
2013-03-27 05:20:00,33.9,30.2,30.07,WNW,293,2.0,-999.0,86,0.00,,,0.00,Wunderground v.1.15,2013-03-27 09:20:00,
2013-03-27 05:26:00,33.9,30.2,30.07,WNW,299,3.0,-999.0,86,0.00,,,0.00,Wunderground v.1.15,2013-03-27 09:26:00,
2013-03-27 05:31:00,33.9,30.2,30.07,NW,308,3.0,-999.0,86,0.00,,,0.00,Wunderground v.1.15,2013-03-27 09:31:00,
2013-03-27 05:37:00,33.9,30.2,30.07,WNW,303,3.0,-999.0,86,0.00,,,0.00,Wunderground v.1.15,2013-03-27 09:37:00,
2013-03-27 05:43:00,33.9,30.2,30.07,WNW,285,3.0,-999.0,86,0.00,,,0.00,Wunderground v.1.15,2013-03-27 09:43:00,
2013-03-27 05:49:00,33.9,30.2,30.07,WNW,296,3.0,-999.0,86,0.00,,,0.00,Wunderground v.1.15,2013-03-27 09:49:00,
2013-03-27 05:55:00,33.9,30.2,30.07,WNW,296,2.0,-999.0,86,0.00,,,0.00,Wunderground v.1.15,2013-03-27 09:55:00,
2013-03-27 06:01:00,33.9,30.2,30.08,WNW,299,3.0,-999.0,86,0.00,,,0.00,Wunderground v.1.15,2013-03-27 10:01:00,
2013-03-27 06:06:00,33.9,30.2,30.08,NW,309,2.0,-999.0,86,0.00,,,0.00,Wunderground v.1.15,2013-03-27 10:06:00,
2013-03-27 06:12:00,33.7,30.2,30.08,WNW,298,1.0,-999.0,87,0.00,,,0.00,Wunderground v.1.15,2013-03-27 10:12:00,
2013-03-27 06:18:00,33.7,30.2,30.08,WNW,297,2.0,-999.0,87,0.00,,,0.00,Wunderground v.1.15,2013-03-27 10:18:00,
2013-03-27 06:24:00,33.6,30.1,30.08,NW,306,2.0,-999.0,87,0.00,,,0.00,Wunderground v.1.15,2013-03-27 10:24:00,
2013-03-27 06:29:00,33.6,30.4,30.08,NW,306,2.0,-999.0,88,0.00,,,0.00,Wunderground v.1.15,2013-03-27 10:29:00,
2013-03-27 06:35:00,33.6,30.4,30.08,WNW,294,2.0,-999.0,88,0.00,,,0.00,Wunderground v.1.15,2013-03-27 10:35:00,
2013-03-27 06:41:00,33.7,30.5,30.09,West,271,3.0,-999.0,88,0.00,,,0.00,Wunderground v.1.15,2013-03-27 10:41:00,
2013-03-27 06:47:00,33.7,30.5,30.09,WNW,299,2.0,-999.0,88,0.00,,,0.00,Wunderground v.1.15,2013-03-27 10:47:00,
2013-03-27 06:53:00,33.7,30.2,30.09,WNW,296,2.0,-999.0,87,0.00,,,0.00,Wunderground v.1.15,2013-03-27 10:53:00,
2013-03-27 06:59:00,33.7,30.2,30.09,WNW,296,2.0,-999.0,87,0.00,,,0.00,Wunderground v.1.15,2013-03-27 10:59:00,
2013-03-27 07:04:00,33.8,30.3,30.09,WNW,301,2.0,-999.0,87,0.00,,,0.00,Wunderground v.1.15,2013-03-27 11:04:00,
2013-03-27 07:10:00,33.8,30.3,30.09,NW,309,3.0,-999.0,87,0.00,,,0.00,Wunderground v.1.15,2013-03-27 11:10:00,
2013-03-27 07:15:00,33.8,31.7,30.09,NW,304,3.0,-999.0,92,0.00,,,0.00,Wunderground v.1.15,2013-03-27 11:15:00,
2013-03-27 07:21:00,33.8,30.1,30.09,WNW,292,2.0,-999.0,86,0.00,,,0.00,Wunderground v.1.15,2013-03-27 11:21:00,
2013-03-27 07:26:00,33.8,30.1,30.09,WNW,300,2.0,-999.0,86,0.00,,,0.00,Wunderground v.1.15,2013-03-27 11:26:00,
2013-03-27 07:32:00,33.8,30.3,30.10,NW,315,2.0,-999.0,87,0.00,,,0.00,Wunderground v.1.15,2013-03-27 11:32:00,
2013-03-27 07:38:00,33.7,30.2,30.10,WNW,303,2.0,-999.0,87,0.00,,,0.00,Wunderground v.1.15,2013-03-27 11:38:00,
2013-03-27 07:44:00,33.5,30.3,30.10,WNW,302,2.0,-999.0,88,0.00,,,0.00,Wunderground v.1.15,2013-03-27 11:44:00,
2013-03-27 07:50:00,33.3,30.1,30.10,WNW,300,1.0,-999.0,88,0.00,,,0.00,Wunderground v.1.15,2013-03-27 11:50:00,
2013-03-27 07:55:00,33.3,30.4,30.10,WNW,302,1.0,-999.0,89,0.00,,,0.00,Wunderground v.1.15,2013-03-27 11:55:00,
2013-03-27 08:01:00,33.3,30.4,30.11,NW,305,2.0,-999.0,89,0.00,,,0.00,Wunderground v.1.15,2013-03-27 12:01:00,
2013-03-27 08:07:00,33.4,30.5,30.11,NW,305,1.0,-999.0,89,0.00,,,0.00,Wunderground v.1.15,2013-03-27 12:07:00,
2013-03-27 08:13:00,33.5,30.3,30.11,NW,305,1.0,-999.0,88,0.00,,,0.00,Wunderground v.1.15,2013-03-27 12:13:00,
2013-03-27 08:18:00,33.6,30.4,30.11,NW,304,2.0,-999.0,88,0.00,,,0.00,Wunderground v.1.15,2013-03-27 12:18:00,
2013-03-27 08:24:00,33.7,30.5,30.12,West,281,2.0,-999.0,88,0.00,,,0.00,Wunderground v.1.15,2013-03-27 12:24:00,
2013-03-27 08:31:00,33.8,30.3,30.12,WNW,297,2.0,-999.0,87,0.00,,,0.00,Wunderground v.1.15,2013-03-27 12:31:00,
2013-03-27 08:36:00,33.9,30.4,30.12,WNW,294,2.0,-999.0,87,0.00,,,0.00,Wunderground v.1.15,2013-03-27 12:36:00,
2013-03-27 08:42:00,34.0,30.5,30.12,WNW,295,2.0,-999.0,87,0.00,,,0.00,Wunderground v.1.15,2013-03-27 12:42:00,
2013-03-27 08:47:00,34.1,30.4,30.12,NW,311,2.0,-999.0,86,0.00,,,0.00,Wunderground v.1.15,2013-03-27 12:47:00,
2013-03-27 08:53:00,34.2,30.4,30.12,WNW,290,3.0,-999.0,86,0.00,,,0.00,Wunderground v.1.15,2013-03-27 12:53:00,
2013-03-27 08:59:00,34.3,30.3,30.13,WNW,288,3.0,-999.0,85,0.00,,,0.00,Wunderground v.1.15,2013-03-27 12:59:00,
2013-03-27 09:04:00,34.4,30.4,30.13,WNW,302,2.0,-999.0,85,0.00,,,0.00,Wunderground v.1.15,2013-03-27 13:04:00,
2013-03-27 09:10:00,34.6,30.3,30.13,NW,311,2.0,-999.0,84,0.00,,,0.00,Wunderground v.1.15,2013-03-27 13:10:00,
2013-03-27 09:16:00,34.8,30.8,30.13,NW,311,2.0,-999.0,85,0.00,,,0.00,Wunderground v.1.15,2013-03-27 13:16:00,
2013-03-27 09:22:00,35.0,30.7,30.13,NW,309,2.0,-999.0,84,0.00,,,0.00,Wunderground v.1.15,2013-03-27 13:22:00,
2013-03-27 09:28:00,35.0,30.4,30.13,WNW,290,3.0,-999.0,83,0.00,,,0.00,Wunderground v.1.15,2013-03-27 13:28:00,
2013-03-27 09:33:00,35.1,30.5,30.13,WNW,299,3.0,-999.0,83,0.00,,,0.00,Wunderground v.1.15,2013-03-27 13:33:00,
2013-03-27 09:39:00,35.5,30.8,30.13,NW,307,3.0,-999.0,83,0.00,,,0.00,Wunderground v.1.15,2013-03-27 13:39:00,
2013-03-27 09:45:00,36.1,31.1,30.13,NW,306,2.0,-999.0,82,0.00,,,0.00,Wunderground v.1.15,2013-03-27 13:45:00,
2013-03-27 09:51:00,36.7,31.4,30.13,WNW,298,1.0,-999.0,81,0.00,,,0.00,Wunderground v.1.15,2013-03-27 13:51:00,
2013-03-27 09:57:00,36.6,31.0,30.13,NW,306,3.0,-999.0,80,0.00,,,0.00,Wunderground v.1.15,2013-03-27 13:57:00,
2013-03-27 10:03:00,36.6,30.7,30.13,NW,304,4.0,-999.0,79,0.00,,,0.00,Wunderground v.1.15,2013-03-27 14:03:00,
2013-03-27 10:09:00,37.5,31.9,30.13,NNW,347,3.0,-999.0,80,0.00,,,0.00,Wunderground v.1.15,2013-03-27 14:09:00,
2013-03-27 10:15:00,37.9,31.3,30.13,NW,311,2.0,-999.0,77,0.00,,,0.00,Wunderground v.1.15,2013-03-27 14:15:00,
2013-03-27 10:21:00,38.0,30.4,30.13,WNW,299,3.0,-999.0,74,0.00,,,0.00,Wunderground v.1.15,2013-03-27 14:21:00,
2013-03-27 10:27:00,37.9,30.0,30.13,WNW,294,5.0,-999.0,73,0.00,,,0.00,Wunderground v.1.15,2013-03-27 14:27:00,
2013-03-27 10:32:00,37.8,29.9,30.13,NW,306,5.0,-999.0,73,0.00,,,0.00,Wunderground v.1.15,2013-03-27 14:32:00,
2013-03-27 10:38:00,38.5,30.9,30.13,NNW,339,4.0,-999.0,74,0.00,,,0.00,Wunderground v.1.15,2013-03-27 14:38:00,
2013-03-27 10:44:00,39.1,29.4,30.13,WNW,296,4.0,-999.0,68,0.00,,,0.00,Wunderground v.1.15,2013-03-27 14:44:00,
2013-03-27 10:49:00,38.9,29.2,30.13,NNE,15,5.0,-999.0,68,0.00,,,0.00,Wunderground v.1.15,2013-03-27 14:49:00,
2013-03-27 10:55:00,39.6,30.6,30.13,North,11,4.0,-999.0,70,0.00,,,0.00,Wunderground v.1.15,2013-03-27 14:55:00,
2013-03-27 11:02:00,40.2,30.5,30.13,NW,312,2.0,-999.0,68,0.00,,,0.00,Wunderground v.1.15,2013-03-27 15:02:00,
2013-03-27 11:08:00,39.4,28.6,30.13,WNW,293,4.0,-999.0,65,0.00,,,0.00,Wunderground v.1.15,2013-03-27 15:08:00,
2013-03-27 11:14:00,39.5,29.1,30.13,WNW,302,5.0,-999.0,66,0.00,,,0.00,Wunderground v.1.15,2013-03-27 15:14:00,
2013-03-27 11:20:00,39.5,29.1,30.13,NW,324,5.0,-999.0,66,0.00,,,0.00,Wunderground v.1.15,2013-03-27 15:20:00,
2013-03-27 11:25:00,39.3,28.9,30.13,WNW,290,5.0,-999.0,66,0.00,,,0.00,Wunderground v.1.15,2013-03-27 15:25:00,
2013-03-27 11:31:00,39.5,28.7,30.13,NNW,335,5.0,-999.0,65,0.00,,,0.00,Wunderground v.1.15,2013-03-27 15:31:00,
2013-03-27 11:36:00,39.2,27.7,30.14,WNW,290,4.0,-999.0,63,0.00,,,0.00,Wunderground v.1.15,2013-03-27 15:36:00,
2013-03-27 11:42:00,39.2,27.7,30.14,NW,321,6.0,-999.0,63,0.00,,,0.00,Wunderground v.1.15,2013-03-27 15:42:00,
2013-03-27 11:48:00,38.9,27.0,30.14,WNW,286,7.0,-999.0,62,0.00,,,0.00,Wunderground v.1.15,2013-03-27 15:48:00,
2013-03-27 11:54:00,38.7,27.2,30.14,North,11,7.0,-999.0,63,0.00,,,0.00,Wunderground v.1.15,2013-03-27 15:54:00,
2013-03-27 12:00:00,38.6,27.8,30.14,NW,323,5.0,-999.0,65,0.00,,,0.00,Wunderground v.1.15,2013-03-27 16:00:00,
2013-03-27 12:06:00,38.6,27.5,30.14,WNW,297,5.0,-999.0,64,0.00,,,0.00,Wunderground v.1.15,2013-03-27 16:06:00,
2013-03-27 12:12:00,38.9,27.4,30.14,NNW,334,4.0,-999.0,63,0.00,,,0.00,Wunderground v.1.15,2013-03-27 16:12:00,
2013-03-27 12:18:00,39.2,26.1,30.14,NW,325,6.0,-999.0,59,0.00,,,0.00,Wunderground v.1.15,2013-03-27 16:18:00,
2013-03-27 12:22:00,39.7,28.5,30.14,NNE,15,6.0,-999.0,64,0.00,,,0.00,Wunderground v.1.15,2013-03-27 16:22:00,
2013-03-27 12:28:00,40.3,28.7,30.14,NW,318,4.0,-999.0,63,0.00,,,0.00,Wunderground v.1.15,2013-03-27 16:28:00,
2013-03-27 12:34:00,40.5,27.7,30.14,NW,318,5.0,-999.0,60,0.00,,,0.00,Wunderground v.1.15,2013-03-27 16:34:00,
2013-03-27 12:40:00,40.6,28.2,30.14,NNW,347,5.0,-999.0,61,0.00,,,0.00,Wunderground v.1.15,2013-03-27 16:40:00,
2013-03-27 12:45:00,40.9,28.5,30.13,NW,309,5.0,-999.0,61,0.00,,,0.00,Wunderground v.1.15,2013-03-27 16:45:00,
2013-03-27 12:51:00,40.9,27.2,30.13,NNW,330,7.0,-999.0,58,0.00,,,0.00,Wunderground v.1.15,2013-03-27 16:51:00,
2013-03-27 12:58:00,41.5,28.2,30.13,NW,307,6.0,-999.0,59,0.00,,,0.00,Wunderground v.1.15,2013-03-27 16:58:00,
2013-03-27 13:03:00,41.0,27.3,30.14,WNW,296,7.0,-999.0,58,0.00,,,0.00,Wunderground v.1.15,2013-03-27 17:03:00,
2013-03-27 13:09:00,41.8,28.9,30.14,North,355,4.0,-999.0,60,0.00,,,0.00,Wunderground v.1.15,2013-03-27 17:09:00,
2013-03-27 13:16:00,42.0,27.9,30.14,NW,307,3.0,-999.0,57,0.00,,,0.00,Wunderground v.1.15,2013-03-27 17:16:00,
2013-03-27 13:21:00,41.8,28.5,30.13,WNW,294,5.0,-999.0,59,0.00,,,0.00,Wunderground v.1.15,2013-03-27 17:21:00,
2013-03-27 13:27:00,41.9,27.8,30.13,NNW,332,4.0,-999.0,57,0.00,,,0.00,Wunderground v.1.15,2013-03-27 17:27:00,
2013-03-27 13:33:00,41.6,28.7,30.13,WNW,300,5.0,-999.0,60,0.00,,,0.00,Wunderground v.1.15,2013-03-27 17:33:00,
2013-03-27 13:39:00,42.2,29.3,30.13,WNW,300,4.0,-999.0,60,0.00,,,0.00,Wunderground v.1.15,2013-03-27 17:39:00,
2013-03-27 13:44:00,42.3,27.3,30.13,WNW,292,3.0,-999.0,55,0.00,,,0.00,Wunderground v.1.15,2013-03-27 17:44:00,
2013-03-27 13:50:00,42.2,27.2,30.13,NW,322,4.0,-999.0,55,0.00,,,0.00,Wunderground v.1.15,2013-03-27 17:50:00,
2013-03-27 13:56:00,41.9,26.9,30.13,WNW,291,4.0,-999.0,55,0.00,,,0.00,Wunderground v.1.15,2013-03-27 17:56:00,
2013-03-27 14:01:00,42.1,27.9,30.13,NNW,336,5.0,-999.0,57,0.00,,,0.00,Wunderground v.1.15,2013-03-27 18:01:00,
2013-03-27 14:07:00,42.0,26.5,30.13,West,280,5.0,-999.0,54,0.00,,,0.00,Wunderground v.1.15,2013-03-27 18:07:00,
2013-03-27 14:12:00,41.8,26.4,30.13,West,280,6.0,-999.0,54,0.00,,,0.00,Wunderground v.1.15,2013-03-27 18:12:00,
2013-03-27 14:18:00,41.7,27.6,30.13,NNW,328,5.0,-999.0,57,0.00,,,0.00,Wunderground v.1.15,2013-03-27 18:18:00,
2013-03-27 14:23:00,42.0,27.4,30.13,NNW,337,3.0,-999.0,56,0.00,,,0.00,Wunderground v.1.15,2013-03-27 18:23:00,
2013-03-27 14:29:00,41.7,26.7,30.13,WNW,290,4.0,-999.0,55,0.00,,,0.00,Wunderground v.1.15,2013-03-27 18:29:00,
2013-03-27 14:35:00,41.5,27.0,30.13,WNW,300,5.0,-999.0,56,0.00,,,0.00,Wunderground v.1.15,2013-03-27 18:35:00,
2013-03-27 14:40:00,41.5,27.4,30.13,WNW,302,5.0,-999.0,57,0.00,,,0.00,Wunderground v.1.15,2013-03-27 18:40:00,
2013-03-27 14:47:00,41.6,27.9,30.13,WNW,294,3.0,-999.0,58,0.00,,,0.00,Wunderground v.1.15,2013-03-27 18:47:00,
2013-03-27 14:52:00,41.8,27.7,30.12,WNW,296,3.0,-999.0,57,0.00,,,0.00,Wunderground v.1.15,2013-03-27 18:52:00,
2013-03-27 14:58:00,41.7,28.0,30.12,NW,309,3.0,-999.0,58,0.00,,,0.00,Wunderground v.1.15,2013-03-27 18:58:00,
2013-03-27 15:04:00,41.8,28.5,30.12,NW,316,1.0,-999.0,59,0.00,,,0.00,Wunderground v.1.15,2013-03-27 19:04:00,
2013-03-27 15:10:00,41.8,28.1,30.12,WNW,292,2.0,-999.0,58,0.00,,,0.00,Wunderground v.1.15,2013-03-27 19:10:00,
2013-03-27 15:16:00,41.6,27.5,30.12,NW,304,3.0,-999.0,57,0.00,,,0.00,Wunderground v.1.15,2013-03-27 19:16:00,
2013-03-27 15:21:00,41.6,27.9,30.12,NNW,340,4.0,-999.0,58,0.00,,,0.00,Wunderground v.1.15,2013-03-27 19:21:00,
2013-03-27 15:26:00,41.5,28.2,30.12,NW,313,4.0,-999.0,59,0.00,,,0.00,Wunderground v.1.15,2013-03-27 19:26:00,
2013-03-27 15:32:00,41.7,29.2,30.12,NW,319,3.0,-999.0,61,0.00,,,0.00,Wunderground v.1.15,2013-03-27 19:32:00,
2013-03-27 15:38:00,42.0,27.9,30.12,NW,313,3.0,-999.0,57,0.00,,,0.00,Wunderground v.1.15,2013-03-27 19:38:00,
2013-03-27 15:43:00,42.0,28.3,30.12,WSW,240,4.0,-999.0,58,0.00,,,0.00,Wunderground v.1.15,2013-03-27 19:43:00,
2013-03-27 15:49:00,41.9,27.8,30.12,NW,305,4.0,-999.0,57,0.00,,,0.00,Wunderground v.1.15,2013-03-27 19:49:00,
2013-03-27 15:55:00,42.0,28.3,30.12,WNW,300,4.0,-999.0,58,0.00,,,0.00,Wunderground v.1.15,2013-03-27 19:55:00,
2013-03-27 16:01:00,42.0,27.9,30.11,NW,317,4.0,-999.0,57,0.00,,,0.00,Wunderground v.1.15,2013-03-27 20:01:00,
2013-03-27 16:07:00,41.8,28.1,30.11,WNW,298,5.0,-999.0,58,0.00,,,0.00,Wunderground v.1.15,2013-03-27 20:07:00,
2013-03-27 16:13:00,41.9,28.6,30.11,WNW,282,4.0,-999.0,59,0.00,,,0.00,Wunderground v.1.15,2013-03-27 20:13:00,
2013-03-27 16:19:00,41.7,27.6,30.11,WNW,300,5.0,-999.0,57,0.00,,,0.00,Wunderground v.1.15,2013-03-27 20:19:00,
2013-03-27 16:25:00,41.8,28.1,30.12,NW,304,4.0,-999.0,58,0.00,,,0.00,Wunderground v.1.15,2013-03-27 20:25:00,
2013-03-27 16:31:00,41.9,27.8,30.11,WNW,293,4.0,-999.0,57,0.00,,,0.00,Wunderground v.1.15,2013-03-27 20:31:00,
2013-03-27 16:36:00,42.0,28.7,30.12,WNW,300,4.0,-999.0,59,0.00,,,0.00,Wunderground v.1.15,2013-03-27 20:36:00,
2013-03-27 16:42:00,42.0,27.4,30.12,WSW,256,3.0,-999.0,56,0.00,,,0.00,Wunderground v.1.15,2013-03-27 20:42:00,
2013-03-27 16:48:00,41.8,27.7,30.11,NW,313,5.0,-999.0,57,0.00,,,0.00,Wunderground v.1.15,2013-03-27 20:48:00,
2013-03-27 16:54:00,41.9,27.8,30.11,West,279,4.0,-999.0,57,0.00,,,0.00,Wunderground v.1.15,2013-03-27 20:54:00,
2013-03-27 16:59:00,41.8,27.2,30.12,WNW,298,5.0,-999.0,56,0.00,,,0.00,Wunderground v.1.15,2013-03-27 20:59:00,
2013-03-27 17:05:00,41.8,27.7,30.12,NW,315,4.0,-999.0,57,0.00,,,0.00,Wunderground v.1.15,2013-03-27 21:05:00,
2013-03-27 17:11:00,41.8,27.2,30.11,NW,308,3.0,-999.0,56,0.00,,,0.00,Wunderground v.1.15,2013-03-27 21:11:00,
2013-03-27 17:17:00,41.8,27.7,30.12,WNW,297,3.0,-999.0,57,0.00,,,0.00,Wunderground v.1.15,2013-03-27 21:17:00,
2013-03-27 17:23:00,41.9,28.2,30.12,NW,309,3.0,-999.0,58,0.00,,,0.00,Wunderground v.1.15,2013-03-27 21:23:00,
2013-03-27 17:28:00,42.1,28.8,30.12,NW,309,2.0,-999.0,59,0.00,,,0.00,Wunderground v.1.15,2013-03-27 21:28:00,
2013-03-27 17:34:00,42.0,27.9,30.12,NW,315,3.0,-999.0,57,0.00,,,0.00,Wunderground v.1.15,2013-03-27 21:34:00,
2013-03-27 17:40:00,41.9,28.2,30.12,WNW,303,4.0,-999.0,58,0.00,,,0.00,Wunderground v.1.15,2013-03-27 21:40:00,
2013-03-27 17:46:00,42.0,28.7,30.12,NW,311,3.0,-999.0,59,0.00,,,0.00,Wunderground v.1.15,2013-03-27 21:46:00,
2013-03-27 17:52:00,41.8,28.1,30.12,WNW,296,5.0,-999.0,58,0.00,,,0.00,Wunderground v.1.15,2013-03-27 21:52:00,
2013-03-27 17:58:00,41.8,28.1,30.12,West,264,5.0,-999.0,58,0.00,,,0.00,Wunderground v.1.15,2013-03-27 21:58:00,
2013-03-27 18:04:00,41.7,28.0,30.12,WNW,295,5.0,-999.0,58,0.00,,,0.00,Wunderground v.1.15,2013-03-27 22:04:00,
2013-03-27 18:09:00,41.7,28.0,30.12,West,272,5.0,-999.0,58,0.00,,,0.00,Wunderground v.1.15,2013-03-27 22:09:00,
2013-03-27 18:15:00,41.7,28.0,30.13,WNW,286,4.0,-999.0,58,0.00,,,0.00,Wunderground v.1.15,2013-03-27 22:15:00,
2013-03-27 18:21:00,41.6,27.5,30.13,West,270,5.0,-999.0,57,0.00,,,0.00,Wunderground v.1.15,2013-03-27 22:21:00,
2013-03-27 18:27:00,41.5,27.0,30.13,WNW,292,6.0,-999.0,56,0.00,,,0.00,Wunderground v.1.15,2013-03-27 22:27:00,
2013-03-27 18:33:00,41.5,27.4,30.13,WNW,287,5.0,-999.0,57,0.00,,,0.00,Wunderground v.1.15,2013-03-27 22:33:00,
2013-03-27 18:39:00,41.3,27.2,30.13,WNW,293,5.0,-999.0,57,0.00,,,0.00,Wunderground v.1.15,2013-03-27 22:39:00,
2013-03-27 18:45:00,41.2,27.1,30.13,NW,321,6.0,-999.0,57,0.00,,,0.00,Wunderground v.1.15,2013-03-27 22:45:00,
2013-03-27 18:51:00,41.0,27.3,30.13,NW,304,6.0,-999.0,58,0.00,,,0.00,Wunderground v.1.15,2013-03-27 22:51:00,
2013-03-27 18:57:00,41.0,29.0,30.13,NW,313,4.0,-999.0,62,0.00,,,0.00,Wunderground v.1.15,2013-03-27 22:57:00,
2013-03-27 19:03:00,40.9,27.7,30.13,NW,313,2.0,-999.0,59,0.00,,,0.00,Wunderground v.1.15,2013-03-27 23:03:00,
2013-03-27 19:09:00,40.9,28.1,30.13,NW,309,4.0,-999.0,60,0.00,,,0.00,Wunderground v.1.15,2013-03-27 23:09:00,
2013-03-27 19:14:00,40.7,28.3,30.13,WNW,292,5.0,-999.0,61,0.00,,,0.00,Wunderground v.1.15,2013-03-27 23:14:00,
2013-03-27 19:20:00,40.5,28.5,30.13,NW,320,5.0,-999.0,62,0.00,,,0.00,Wunderground v.1.15,2013-03-27 23:20:00,
2013-03-27 19:26:00,40.4,28.8,30.13,NW,304,6.0,-999.0,63,0.00,,,0.00,Wunderground v.1.15,2013-03-27 23:26:00,
2013-03-27 19:31:00,40.3,28.7,30.13,WNW,294,6.0,-999.0,63,0.00,,,0.00,Wunderground v.1.15,2013-03-27 23:31:00,
2013-03-27 19:37:00,40.2,29.0,30.13,WNW,298,5.0,-999.0,64,0.00,,,0.00,Wunderground v.1.15,2013-03-27 23:37:00,
2013-03-27 19:43:00,40.0,29.2,30.13,NW,315,4.0,-999.0,65,0.00,,,0.00,Wunderground v.1.15,2013-03-27 23:43:00,
2013-03-27 19:49:00,39.9,29.1,30.13,WNW,290,5.0,-999.0,65,0.00,,,0.00,Wunderground v.1.15,2013-03-27 23:49:00,
2013-03-27 19:55:00,39.8,29.4,30.14,NW,310,4.0,-999.0,66,0.00,,,0.00,Wunderground v.1.15,2013-03-27 23:55:00,
2013-03-27 20:00:00,39.8,29.7,30.14,WNW,294,3.0,-999.0,67,0.00,,,0.00,Wunderground v.1.15,2013-03-28 00:00:00,
2013-03-27 20:06:00,39.7,29.6,30.14,WNW,290,4.0,-999.0,67,0.00,,,0.00,Wunderground v.1.15,2013-03-28 00:06:00,
2013-03-27 20:12:00,39.6,29.9,30.14,West,268,4.0,-999.0,68,0.00,,,0.00,Wunderground v.1.15,2013-03-28 00:12:00,
2013-03-27 20:18:00,39.4,29.7,30.14,NW,305,5.0,-999.0,68,0.00,,,0.00,Wunderground v.1.15,2013-03-28 00:18:00,
2013-03-27 20:23:00,39.3,29.6,30.14,WNW,302,5.0,-999.0,68,0.00,,,0.00,Wunderground v.1.15,2013-03-28 00:23:00,
2013-03-27 21:23:00,38.2,30.0,30.14,WNW,290,3.0,-999.0,72,0.00,,,0.00,Wunderground v.1.15,2013-03-28 01:23:00,
2013-03-27 21:28:00,38.1,29.9,30.15,WSW,257,3.0,-999.0,72,0.00,,,0.00,Wunderground v.1.15,2013-03-28 01:28:00,
2013-03-27 21:33:00,38.0,29.8,30.15,WNW,298,3.0,-999.0,72,0.00,,,0.00,Wunderground v.1.15,2013-03-28 01:33:00,
2013-03-27 21:39:00,38.0,29.8,30.15,WNW,286,3.0,-999.0,72,0.00,,,0.00,Wunderground v.1.15,2013-03-28 01:39:00,
2013-03-27 21:45:00,38.0,29.8,30.15,WNW,283,3.0,-999.0,72,0.00,,,0.00,Wunderground v.1.15,2013-03-28 01:45:00,
2013-03-27 21:50:00,37.9,29.7,30.16,WNW,300,4.0,-999.0,72,0.00,,,0.00,Wunderground v.1.15,2013-03-28 01:50:00,
2013-03-27 21:55:00,37.9,29.7,30.15,WNW,298,2.0,-999.0,72,0.00,,,0.00,Wunderground v.1.15,2013-03-28 01:55:00,
2013-03-27 22:01:00,37.8,29.6,30.16,WNW,294,2.0,-999.0,72,0.00,,,0.00,Wunderground v.1.15,2013-03-28 02:01:00,
2013-03-27 22:07:00,37.8,29.6,30.16,NW,304,4.0,-999.0,72,0.00,,,0.00,Wunderground v.1.15,2013-03-28 02:07:00,
2013-03-27 22:13:00,37.8,29.6,30.16,WNW,302,4.0,-999.0,72,0.00,,,0.00,Wunderground v.1.15,2013-03-28 02:13:00,
2013-03-27 22:18:00,37.7,29.5,30.15,West,271,4.0,-999.0,72,0.00,,,0.00,Wunderground v.1.15,2013-03-28 02:18:00,
2013-03-27 22:23:00,37.7,29.5,30.15,WSW,248,4.0,-999.0,72,0.00,,,0.00,Wunderground v.1.15,2013-03-28 02:23:00,
2013-03-27 22:29:00,37.6,29.7,30.15,WNW,300,4.0,-999.0,73,0.00,,,0.00,Wunderground v.1.15,2013-03-28 02:29:00,
2013-03-27 22:35:00,37.4,29.5,30.15,WNW,296,4.0,-999.0,73,0.00,,,0.00,Wunderground v.1.15,2013-03-28 02:35:00,
2013-03-27 22:40:00,37.5,29.6,30.15,West,263,4.0,-999.0,73,0.00,,,0.00,Wunderground v.1.15,2013-03-28 02:40:00,
2013-03-27 22:46:00,37.4,29.5,30.15,WNW,294,4.0,-999.0,73,0.00,,,0.00,Wunderground v.1.15,2013-03-28 02:46:00,
2013-03-27 22:51:00,37.4,29.5,30.15,WNW,283,4.0,-999.0,73,0.00,,,0.00,Wunderground v.1.15,2013-03-28 02:51:00,
2013-03-27 22:57:00,37.4,29.2,30.15,WNW,296,4.0,-999.0,72,0.00,,,0.00,Wunderground v.1.15,2013-03-28 02:57:00,
2013-03-27 23:02:00,37.4,29.2,30.15,NW,304,4.0,-999.0,72,0.00,,,0.00,Wunderground v.1.15,2013-03-28 03:02:00,
2013-03-27 23:08:00,37.4,29.2,30.15,WNW,298,5.0,-999.0,72,0.00,,,0.00,Wunderground v.1.15,2013-03-28 03:08:00,
2013-03-27 23:14:00,37.3,29.4,30.15,WNW,293,5.0,-999.0,73,0.00,,,0.00,Wunderground v.1.15,2013-03-28 03:14:00,
2013-03-27 23:20:00,37.3,29.4,30.15,WNW,300,3.0,-999.0,73,0.00,,,0.00,Wunderground v.1.15,2013-03-28 03:20:00,
2013-03-27 23:25:00,37.2,29.3,30.15,WSW,253,3.0,-999.0,73,0.00,,,0.00,Wunderground v.1.15,2013-03-28 03:25:00,
2013-03-27 23:30:00,37.1,29.2,30.15,WNW,295,3.0,-999.0,73,0.00,,,0.00,Wunderground v.1.15,2013-03-28 03:30:00,
2013-03-27 23:36:00,37.1,29.2,30.15,WNW,291,2.0,-999.0,73,0.00,,,0.00,Wunderground v.1.15,2013-03-28 03:36:00,
2013-03-27 23:42:00,37.1,29.2,30.15,WSW,249,3.0,-999.0,73,0.00,,,0.00,Wunderground v.1.15,2013-03-28 03:42:00,
2013-03-27 23:48:00,37.0,29.1,30.15,WNW,298,3.0,-999.0,73,0.00,,,0.00,Wunderground v.1.15,2013-03-28 03:48:00,
2013-03-27 23:54:00,37.0,29.1,30.15,WNW,294,3.0,-999.0,73,0.00,,,0.00,Wunderground v.1.15,2013-03-28 03:54:00,